Theta_e
355 356 360 360 355 360 357 346 346 343 340 353 342 345 349 355 351 352 353 362 362 363 360 359 360 360 359 358 358 359 359 357 356 356 358 359 359 359 357 355 355 354 354
363 361 361 360 362 362 361 363 365 344 338 351 359 354 353 356 341 343 356 356 361 362 361 360 361 361 360 360 360 360 357 358 359 359 362 361 359 358 356 355 354 355 354
365 367 360 362 362 367 366 366 357 348 351 354 355 355 357 357 358 359 357 355 355 362 362 363 363 361 360 361 360 359 360 363 364 362 360 359 358 357 356 354 352 353 354
366 366 361 360 358 365 363 346 341 343 341 351 352 352 354 355 351 353 359 356 354 351 360 363 363 362 362 361 360 360 360 362 362 361 358 357 355 354 354 352 353 355 354
364 366 361 363 366 363 350 339 339 342 346 340 337 341 349 351 351 352 357 359 357 353 354 363 363 363 365 362 361 359 360 360 359 357 356 355 353 352 351 354 354 353 352
363 367 362 365 363 361 357 334 335 336 345 335 343 344 345 348 352 352 351 357 354 354 355 354 358 358 365 364 363 361 360 359 357 356 355 354 352 350 350 352 351 350 349
361 366 361 366 366 362 360 357 363 352 353 343 339 330 342 343 341 341 350 351 344 356 357 357 356 356 359 364 363 363 360 358 357 355 354 354 351 349 350 350 350 348 347
364 361 365 362 366 359 365 367 364 358 349 341 349 336 334 336 337 339 344 352 354 351 354 356 354 356 358 359 360 363 362 359 357 356 355 354 351 349 349 349 349 348 348
362 362 365 365 366 367 360 367 366 362 337 329 335 344 340 331 334 340 345 345 347 353 355 353 357 359 363 360 361 362 361 359 359 357 357 356 353 349 349 348 347 348 347
361 360 360 365 368 366 365 365 363 364 357 331 344 345 356 351 340 337 340 341 345 341 344 358 354 361 364 362 363 362 361 359 360 360 360 358 353 348 346 345 345 346 343
362 361 361 364 364 363 361 366 366 356 364 361 354 353 354 352 354 345 338 335 344 340 344 353 355 353 360 360 360 361 359 358 359 361 361 359 354 347 346 343 343 345 340
359 362 361 361 364 361 363 363 367 365 364 364 361 357 351 347 343 345 336 342 337 341 346 347 355 356 359 358 363 360 358 357 357 358 359 359 356 351 346 345 344 344 338
355 358 362 361 361 364 362 364 370 364 366 363 365 360 357 351 351 347 346 340 339 345 346 353 348 348 359 357 361 359 359 354 353 353 355 356 356 354 351 349 345 344 338
362 351 360 362 364 364 361 365 364 362 361 361 364 362 358 353 350 348 348 345 340 341 343 350 346 346 353 362 361 361 357 351 351 349 349 352 353 352 350 350 348 346 343
356 347 348 353 360 362 362 366 357 359 358 360 361 361 361 355 351 349 351 350 345 337 338 349 347 353 352 357 358 353 359 350 350 348 347 348 349 349 348 347 345 342 340
352 346 349 343 337 347 362 364 358 358 361 359 357 357 360 356 355 356 355 354 353 345 341 349 348 356 351 356 353 338 357 349 348 347 345 345 346 346 346 344 342 340 338
358 348 345 338 345 348 357 360 357 358 358 358 361 359 360 361 359 357 358 353 353 347 341 348 355 358 360 360 354 362 355 355 351 345 344 343 343 343 343 341 339 337 336
364 363 354 347 348 351 357 359 355 353 355 357 357 357 360 355 358 361 358 356 351 356 352 348 352 352 354 359 359 362 359 357 355 346 343 342 341 340 338 337 335 333 332
362 361 360 360 358 357 358 357 357 354 355 355 357 356 356 357 358 355 359 355 355 354 356 352 349 353 352 355 358 360 358 359 360 346 341 341 340 338 335 333 330 327 326
362 360 360 360 360 359 359 358 356 357 357 358 358 358 357 356 356 357 355 353 351 352 352 350 347 346 350 351 355 351 349 356 348 353 348 345 340 337 333 329 328 326 321
361 363 359 359 360 359 356 358 358 355 357 356 357 357 355 356 351 352 354 355 353 350 347 348 345 345 344 345 349 352 347 350 352 352 344 341 337 334 331 328 330 328 322
362 362 361 359 358 357 345 341 353 355 354 353 353 353 354 351 349 341 341 343 352 349 346 346 347 344 347 350 352 348 346 343 341 355 343 340 341 334 330 329 328 324 321
363 361 360 360 358 358 342 337 339 353 353 353 351 353 353 351 348 353 344 338 339 339 341 349 345 346 347 350 351 347 345 345 344 351 342 333 336 330 330 328 325 321 319
360 359 358 358 359 359 341 334 338 352 354 352 353 355 355 351 351 349 348 346 349 350 348 345 345 348 353 355 352 353 353 350 351 350 345 331 332 324 323 321 322 320 317
359 358 357 355 354 355 333 331 337 353 352 354 354 353 353 351 338 330 341 344 346 348 344 336 334 334 335 339 344 352 345 345 343 347 350 331 325 320 319 317 318 317 314
357 356 354 353 338 345 322 323 332 348 346 348 349 352 327 329 324 325 338 342 342 344 346 348 345 337 334 340 335 344 346 340 342 340 345 328 321 318 312 315 313 311 309
Wind_Speed
5 3 3 3 3 3 5 9 10 10 10 8 26 18 15 10 6 3 5 19 15 11 9 8 6 5 4 3 3 3 2 2 3 3 4 6 8 8 8 9 8 7 6
1 3 1 3 3 3 3 3 3 11 5 9 5 12 12 8 13 5 1 7 17 14 10 8 7 6 5 4 4 4 3 4 7 8 10 10 8 8 8 7 7 7 5
2 1 4 5 2 2 3 4 7 9 5 5 5 4 5 5 7 21 9 7 10 14 14 11 9 8 6 7 6 6 5 5 10 13 11 9 8 6 7 7 6 7 7
4 5 4 2 6 3 3 13 9 13 9 9 5 0 2 7 17 9 13 9 7 7 10 13 12 10 9 9 8 8 7 8 11 11 10 9 9 9 8 7 6 10 11
5 5 6 1 0 3 10 6 12 10 11 8 8 11 14 4 8 9 6 6 10 8 6 11 11 9 10 11 10 10 9 10 9 9 9 9 8 8 7 8 10 10 9
6 4 6 3 4 4 8 5 15 11 11 3 8 10 11 14 7 4 0 16 19 10 8 9 7 5 7 12 13 11 9 9 9 9 9 8 8 8 7 7 8 8 7
5 3 5 0 2 6 8 7 3 6 4 7 8 6 10 15 11 9 7 12 19 5 7 8 8 5 6 12 13 13 12 10 9 9 8 7 7 7 7 7 6 6 6
6 4 4 5 4 4 3 1 4 2 7 8 3 4 3 6 5 5 8 4 6 4 7 5 11 11 10 7 9 14 14 13 11 10 8 7 6 6 7 6 6 6 7
7 5 5 4 4 2 4 1 2 3 3 5 6 4 2 2 3 4 9 8 8 5 9 11 15 14 11 8 9 9 12 13 13 11 9 8 7 7 7 7 6 6 6
7 6 6 4 3 3 4 3 3 1 2 4 4 8 3 3 1 3 6 5 10 15 12 4 7 6 9 8 13 10 13 13 13 12 10 10 8 8 7 7 6 6 4
8 8 7 5 4 3 5 2 2 3 2 3 3 4 2 0 4 2 2 3 7 11 10 13 5 4 6 5 11 15 16 15 13 11 9 11 9 8 8 7 6 5 3
7 7 7 5 4 5 5 4 3 4 2 2 3 4 3 2 1 1 1 2 9 7 4 12 2 4 6 6 15 18 20 16 14 12 11 11 10 9 8 7 7 5 4
7 9 6 6 6 5 5 5 3 1 2 2 2 3 3 4 3 2 2 4 3 1 4 1 9 3 7 5 10 20 19 15 12 12 11 11 11 10 9 8 8 6 5
1 10 3 7 7 6 6 6 2 2 5 5 5 3 3 6 6 3 3 1 4 3 4 3 4 7 4 7 12 17 10 12 13 13 12 11 11 11 10 9 8 7 6
4 7 8 9 7 7 6 4 5 6 7 5 6 6 4 4 5 6 5 2 2 3 3 3 2 6 8 8 7 5 5 15 12 14 14 13 12 11 11 10 9 8 7
9 10 11 8 6 13 7 6 6 7 6 6 5 6 5 4 4 3 3 4 1 2 3 1 5 4 7 7 12 9 8 17 18 16 15 14 13 12 11 10 10 10 9
12 14 13 8 6 14 11 7 7 8 5 5 6 5 4 5 2 4 2 3 3 2 3 5 2 3 4 3 8 5 6 7 7 12 12 11 13 12 11 11 11 11 10
6 7 15 14 13 14 11 8 9 9 7 7 7 7 4 5 7 4 3 5 5 4 2 6 3 3 4 5 3 2 3 5 7 15 14 12 11 11 10 10 10 10 10
9 8 8 10 11 12 9 8 10 11 11 11 8 9 8 6 5 4 5 5 4 5 3 2 4 4 4 4 3 3 3 3 2 10 9 9 8 9 10 10 9 9 10
11 12 11 10 10 11 11 10 10 10 11 9 8 7 8 10 9 8 7 8 6 5 4 4 5 7 7 6 4 4 3 3 3 3 4 6 8 9 9 10 10 10 10
8 9 9 10 9 10 10 11 11 12 8 9 9 7 8 10 13 12 7 8 6 6 6 5 8 7 6 5 4 3 2 1 3 4 4 5 4 5 4 9 10 14 13
9 8 10 10 10 9 13 15 14 11 11 10 9 10 9 11 8 9 12 13 10 10 10 7 4 7 6 3 2 2 4 5 3 5 4 4 5 5 5 5 11 13 13
7 8 9 9 10 11 10 4 5 7 9 10 10 8 8 9 10 11 13 14 14 16 14 8 9 10 8 5 3 4 5 5 5 4 6 3 2 4 3 4 15 15 12
7 6 8 9 8 8 6 7 4 4 6 7 7 7 8 9 9 10 9 9 11 12 10 9 11 11 10 8 7 6 5 4 3 4 6 4 3 3 5 4 13 14 13
4 5 5 7 7 8 4 2 2 5 5 5 5 6 5 6 8 6 4 11 10 9 9 13 11 12 10 10 9 6 7 4 5 4 9 4 4 4 2 3 5 13 12
1 0 0 3 4 7 8 6 1 3 5 4 6 3 12 7 8 7 3 5 7 7 7 9 5 6 8 8 10 8 8 8 6 4 4 5 4 4 3 2 5 5 5
Wind_Direction
233 191 111 161 175 151 190 170 236 70 322 302 110 192 251 96 95 108 144 148 150 155 145 134 141 137 152 155 142 125 121 113 114 111 115 117 110 103 95 86 77 78 87
307 87 152 237 241 164 316 287 293 141 185 254 153 192 204 113 127 140 190 165 153 155 152 144 144 135 146 149 136 124 122 117 115 120 111 107 106 100 96 89 84 78 81
247 267 239 242 143 192 270 278 360 16 320 236 148 197 209 149 87 132 189 198 150 159 157 152 150 143 144 139 133 131 114 89 119 111 109 111 100 97 101 78 70 66 77
270 288 247 28 260 239 193 58 6 342 347 303 356 296 228 96 51 306 175 150 149 156 168 161 159 155 154 139 142 132 118 92 104 110 113 112 105 96 91 82 67 89 81
237 295 309 245 17 320 67 77 21 323 311 315 347 346 315 78 160 233 94 126 153 148 165 165 162 166 164 150 148 140 130 119 117 116 118 118 114 106 101 87 82 81 77
262 264 295 170 337 326 108 171 176 194 239 141 324 309 343 349 5 9 96 65 336 155 148 153 149 164 217 164 153 150 146 140 135 132 132 127 118 109 102 100 95 90 85
237 261 295 148 319 290 85 326 226 68 149 176 159 324 32 332 340 316 95 129 212 121 204 148 114 254 200 178 161 157 155 154 152 148 143 134 128 122 118 112 107 102 99
229 232 255 291 198 293 335 176 55 316 92 252 30 150 118 305 309 3 318 155 153 180 110 283 177 187 186 181 174 168 160 160 160 159 156 150 143 139 136 132 127 118 111
198 224 279 244 326 326 310 270 223 242 62 329 7 305 19 214 1 293 36 359 0 325 168 195 165 184 176 161 155 174 173 165 164 167 170 167 160 158 153 145 136 127 119
207 199 242 227 236 310 301 260 274 137 123 181 161 254 191 144 250 345 31 278 37 348 312 186 203 180 141 163 160 166 187 180 169 171 178 177 171 166 159 150 148 150 141
198 201 202 230 213 223 270 278 27 38 346 318 327 358 357 355 211 254 291 333 34 263 324 288 184 184 153 162 120 191 202 186 172 168 164 172 178 180 176 170 169 169 166
203 212 186 219 220 236 241 279 218 251 182 2 335 331 321 308 300 285 260 292 185 205 140 267 88 2 147 147 163 173 187 181 168 169 170 175 183 190 191 190 190 191 186
186 190 194 195 220 228 273 245 212 258 271 230 306 316 319 301 299 268 323 307 325 289 207 154 95 292 272 130 143 157 175 173 171 175 185 184 183 192 198 200 205 204 204
172 43 252 202 225 206 222 247 174 212 258 241 230 250 290 305 311 296 249 211 317 310 323 210 187 191 62 309 156 151 161 173 184 185 191 191 189 193 200 200 202 192 193
132 114 18 297 239 237 217 191 226 205 248 223 236 224 221 261 286 295 321 237 218 284 287 314 133 216 76 59 47 1 197 180 191 191 192 192 190 193 198 201 193 175 165
125 122 168 240 302 289 232 224 243 235 209 227 230 243 227 235 262 328 357 350 12 192 309 0 29 357 109 164 200 196 219 157 198 195 191 189 187 191 193 195 187 174 170
147 161 182 189 200 251 232 213 241 277 255 242 272 296 278 278 306 301 327 333 346 324 299 294 75 358 353 166 184 213 131 187 183 190 186 195 187 184 188 188 183 175 170
227 185 168 186 207 229 228 201 212 244 231 222 223 258 267 248 241 254 264 265 253 252 270 300 319 325 305 282 189 194 226 219 167 196 184 179 191 174 181 179 175 175 170
207 220 209 200 210 219 225 212 211 223 241 235 224 218 228 240 253 248 273 295 300 281 228 242 287 299 276 272 202 183 213 238 149 151 148 162 178 167 170 168 168 165 160
210 205 216 211 214 226 225 228 228 227 225 234 241 236 226 229 229 229 236 250 268 257 259 232 246 252 245 254 221 195 239 205 126 161 146 169 168 161 161 153 157 154 146
216 228 222 218 216 221 224 227 233 236 238 239 247 240 241 238 235 222 224 229 223 257 242 246 237 242 253 262 226 194 134 218 148 148 123 146 141 149 151 153 162 159 148
208 214 226 229 226 228 228 224 213 220 224 231 237 245 248 267 256 248 242 235 206 224 243 256 273 261 250 245 223 212 178 222 225 145 136 161 164 165 155 165 159 150 147
223 220 224 228 236 241 246 220 205 236 219 222 228 238 248 252 249 251 238 245 249 240 229 233 249 255 274 273 286 273 235 225 210 149 133 155 135 126 124 127 143 147 147
234 237 241 242 246 256 207 177 225 242 265 254 238 231 243 254 258 272 289 282 257 257 251 237 241 252 258 265 256 246 237 241 253 167 158 150 140 95 95 95 136 141 136
229 228 246 269 269 271 127 188 224 274 269 274 260 257 272 291 325 341 307 286 276 260 252 248 264 279 278 264 248 252 245 213 233 209 186 118 137 114 99 112 128 140 137
233 29 289 89 49 81 80 86 54 267 281 315 337 57 54 61 29 3 318 309 295 299 304 282 241 252 241 242 246 238 235 227 215 215 166 112 128 139 127 94 129 127 128